Location: La Sioule Rivi�re
(46.3664°N, 3.3197°E)
Time: 12:07:35
(UTC+00:00)

Cosmos 1825 - Pass Details

Date: 29 October 2020
Orbit: 502 x 508 km, 82.5° (Epoch: 23 November)

Event Time Altitude Azimuth Distance (km) Brightness Sun altitude
Rises 17:10:16 0° 10° (N) 2,624 5.5 -6.5°
Reaches altitude 10° 17:13:41 10° 43° (NE) 1,730 4.4 -7.1°
Maximum altitude 17:15:09 12° 66° (ENE) 1,609 4.1 -7.3°
Drops below altitude 10° 17:16:37 10° 89° (E) 1,722 4.2 -7.6°
Enters shadow 17:17:16 - 98° (E) 1,837 4.4 -7.7°
